Meteo Giornale » Osservazioni meteo Italia » Grazzanise

ore: 20:55 - Osservazioni Meteo Grazzanise
Lat. 41° 3' N Lon. 14° 4' E Alt. 9 metri s.l.m.

sereno Europe/Rome

10 °C

Sereno

Temp. 24 Ore

10 °C

16 °C

Nord

0 Km/h

Dew point 7 °C

Umidità 81 %

Visibilità  10 Km

Il sole sorge alle ore 06:37

Il sole tramonta alle ore 17:55

Data e Ora Cielo e Fenomeni T °C DP °C Um. % Pres. hPa Vis. km Vento km/h
Oggi h: 20:55 sereno Sereno 10 7 81 1006 10 N 0
Oggi h: 19:55 sereno Sereno 11 7 76 1006 10 N 5.5
Oggi h: 18:55 sereno Sereno 11 7 76 1007 10 N 5.5
Oggi h: 17:55 sereno Sereno 12 8 76 1007 10 O/SO 7.4
Oggi h: 16:55 poco_nuvoloso Poco Nuvoloso 13 8 71 1007 10 O/SO 9.3
Oggi h: 15:55 poco_nuvoloso Poco Nuvoloso 15 9 67 1007 10 SO 7.4
Oggi h: 14:55 poco_nuvoloso Poco Nuvoloso 16 4 44 1007 10 N 3.7
Oggi h: 13:55 poco_nuvoloso Poco Nuvoloso 16 3 41 1008 10 N 3.7
Oggi h: 12:55 poco_nuvoloso Poco Nuvoloso 16 4 44 1009 10 N 5.5
Oggi h: 11:55 poco_nuvoloso Poco Nuvoloso 16 4 44 1009 10 N/NO 9.3
Oggi h: 10:55 nuvoloso Nuvoloso 14 6 58 1009 10 NE 14.8
Oggi h: 09:55 nuvoloso Nuvoloso 12 6 66 1008 10 N/NE 14.8
Oggi h: 08:55 nuvoloso Nuvoloso 10 6 76 1008 10 NE 7.4
Oggi h: 07:55 nuvoloso Nuvoloso 10 5 71 1008 10 NE 14.8
Oggi h: 06:55 coperto_pioggia Pioggia Debole 11 6 71 1009 8 N 20.3
Oggi h: 05:55 coperto_pioggia Pioggia Debole 11 7 76 1010 8 NE 16.7
Oggi h: 04:55 coperto_pioggia Pioggia Debole 11 7 76 1010 8 N/NE 18.5
Oggi h: 03:55 coperto_pioggia Pioggia Debole 11 8 81 1010 8 N 13
Oggi h: 03:15 coperto_pioggia Pioggia Debole 11 8 81 1010 8 N/NE 11.1
Oggi h: 02:55 coperto_pioggia Pioggia 11 8 81 1010 5 N/NE 11.1
Oggi h: 01:55 coperto_pioggia Pioggia 12 9 81 1010 5 N 7.4
Oggi h: 00:55 coperto_pioggia Pioggia 12 9 81 1010 5 S/SE 7.4
Oggi h: 00:20 coperto_pioggia Pioggia 12 9 81 1010 5 N 3.7
Ieri h: 23:55 coperto_pioggia Pioggia Debole 12 9 81 1010 8 O/NO 7.4
Ieri h: 22:55 coperto_pioggia Pioggia Debole 12 9 81 1010 8 S 22.2
Ieri h: 21:55 molto_nuvoloso Molto Nuvoloso 12 9 81 1009 10 S/SO 11.1
Ieri h: 20:55 molto_nuvoloso Molto Nuvoloso 11 10 93 1009 10 SO 11.1